Current weather by "City, St" or "zip code"  
 

Current Conditions: Aitkin Municipal Airport - Steve Kurtz Field, MN

Fair


54.0 F

Last Updated on Sep 18 2020, 10:55 am CDT
Humidity: 44%
Wind Speed: S 9.2 mph
Barometer 30.42 in
Dewpoint: 32.0 F
Visibility: 10.00 mi
Precip: --
Heat Index: NA
Wind Chill: 51 F
Current conditions at:

Aitkin Municipal Airport - Steve Kurtz Field, MN (KAIT)

Lat: 46.54899 Lon: 93.67573

Local Radar Image active severe weather and emergency alerts image image weather storm and storm spotter reports image weather observation monitoring service image
Local
Radar
Active
Alerts
Storm Reports Obs
Monitoring

Sign-up For Email & Text Message Weather Alert Notification Services



Advertise Here

Observation History for Aitkin Municipal Airport - Steve Kurtz Field, MN


Time Wind
(mph)
Vis
(mi)
Weather Precip (in) Temperature (F) Relative
Humidity
Wind
Chill
(F)
Heat
Index
(F)
Pressure
Air Dwpt altimeter
(in)
sea level
(mb)
Rmks
10:55 am CDT S 9.2 10.00 Fair -- 54.0 32.0 44% 51 NA 30.42 M
9:55 am CDT S 5.8 10.00 Fair -- 48.0 37.4 66% 45 NA 30.42 M
8:55 am CDT N 0.0 10.00 Fair -- 36.0 33.8 93% NA NA 30.42 M
7:55 am CDT N 0.0 10.00 Fair -- 28.0 26.6 93% NA NA 30.42 M
6:55 am CDT N 0.0 3.00 Fog/Mist -- 25.0 21.2 86% NA NA 30.41 M
5:55 am CDT N 0.0 0.75 Fog/Mist -- 25.0 23.0 93% NA NA 30.41 M
4:55 am CDT N 0.0 3.00 Fog/Mist -- 27.0 24.8 93% NA NA 30.39 M
3:55 am CDT N 0.0 7.00 Fair -- 27.0 24.8 93% NA NA 30.38 M
2:55 am CDT N 0.0 10.00 Fair -- 28.0 26.6 93% NA NA 30.37 M
1:55 am CDT N 0.0 10.00 Fair -- 28.0 26.6 93% NA NA 30.37 M
12:55 am CDT N 0.0 1.75 Fog/Mist -- 30.0 28.4 93% NA NA 30.36 M
11:55 pm CDT N 0.0 1.75 Fog/Mist -- 34.0 30.2 87% NA NA 30.36 M
10:55 pm CDT N 0.0 10.00 Fair -- 34.0 30.2 87% NA NA 30.35 M
9:55 pm CDT N 0.0 10.00 Partly Cloudy -- 37.0 35.6 93% NA NA 30.33 M
9:35 pm CDT N 0.0 10.00 Overcast -- 39.0 37.4 93% NA NA 30.33 M
8:55 pm CDT N 0.0 10.00 Overcast -- 43.0 37.4 81% NA NA 30.32 M
7:55 pm CDT N 0.0 10.00 Overcast -- 43.0 37.4 81% NA NA 30.30 M
6:55 pm CDT N 6.9 10.00 Fair -- 48.0 33.8 58% 45 NA 30.29 M
5:55 pm CDT N 6.9 10.00 Fair -- 54.0 35.6 51% 52 NA 30.28 M
4:55 pm CDT W 5.8 10.00 Fair -- 55.0 35.6 47% 54 NA 30.28 M
3:55 pm CDT NW 6.9 10.00 Partly Cloudy -- 54.0 33.8 47% 52 NA 30.29 M
2:55 pm CDT N 5.8 10.00 Overcast -- 54.0 33.8 47% 53 NA 30.29 M
1:55 pm CDT N 5.8 10.00 Partly Cloudy -- 54.0 33.8 47% 53 NA 30.30 M
12:55 pm CDT NE 4.6 10.00 Fair -- 52.0 33.8 50% 51 NA 30.31 M

Regional Weather Observation


Longville, Longville Municipal Airport, MN (KXVG)

Mostly Cloudy
52.0 F

Mc Gregor - Isedor Iverson Airport, MN (KHZX)

Fair
54.0 F

Pine River Regional Airport, MN (KPWC)

Mostly Cloudy
52.0 F

Brainerd - Crow Wing County Airport, MN (KBRD)

Fair
54.0 F

Grand Rapids, Grand Rapids/Itasca County Airport-Gordon Newstrom Field, MN (KGPZ)

Fair
51.0 F

Staples, Staples Municipal Airport, MN (KSAZ)

Fair
55.0 F